GALAXY 32 (G-32)

Last updated on Tue Oct 08 2024 00:02:42 GMT+0000 (Coordinated Universal Time)

1 54244U 22153B 24280.59538140 -.00000163 00000+0 00000+0 0 9992 2 54244 0.0090 185.1252 0000346 101.3084 212.6660 1.00271934 6943
UTC large
Height (km)
Speed (km/s)
/
Latitude / Longitude
Inclination (degrees)
Orbital Period (minutes)
Azimuth
Elevation
Range (km)
Doppler Factor

Next 0 passes for location: London (51.5072 / 0.1276)

Sorry there are no passes over London.